Location: *
(43.7694°N, 2.9506°E)
Time: 10:48:18
(UTC+00:00)

Daily predictions for brighter satellites

Satellite Brightness Start Highest point End
(mag) Time Altitude Azimuth Time Altitude Azimuth Time Altitude Azimuth
Cosmos 1707 4.1 18:17:21 10° NNE 18:20:18 20° ENE 18:23:15 10° ESE
SL-16 R/B 4.2 18:18:39 10° NNE 18:20:37 12° NE 18:22:35 10° ENE
TIMED 4.5 18:17:29 10° NNW 18:21:53 79° ENE 18:26:14 10° SSE
Cosmos 2333 4.2 18:18:02 10° NNW 18:23:44 81° ENE 18:29:27 10° SSE
COSMOS 2455 3.0 18:20:10 10° NNW 18:26:13 80° WSW 18:32:13 10° SSE
Envisat 4.0 18:21:29 10° S 18:26:25 51° W 18:31:23 10° NNW
Cosmos 2219 Rocket 2.3 18:21:05 10° NNW 18:26:38 58° ENE 18:32:08 10° SE
Timation 2 Rocket 4.1 18:21:29 10° SSW 18:28:07 86° ESE 18:34:29 10° NNE
SJ-6B 4.4 18:27:28 10° ESE 18:30:26 20° ENE 18:33:25 10° NNE
Cosmos 1300 Rocket 3.8 18:28:43 10° SSW 18:33:01 75° W 18:37:21 10° N
COSMO-SKYMED 1 4.0 18:29:04 10° N 18:33:12 44° WNW 18:37:19 10° SW
COSMOS 2428 2.7 18:28:51 10° NNW 18:34:32 69° ENE 18:40:12 10° SSE
NOAA 11 4.2 18:29:10 10° SSE 18:34:36 67° ENE 18:40:04 10° N
Cosmos 2322 4.1 18:29:54 10° NNW 18:35:37 69° WSW 18:41:17 10° SSE
Aureole 1 Rocket 3.1 18:30:39 10° NNW 18:35:52 78° ENE 18:39:46 10° SSE
Cosmos 2251 Rocket 3.8 18:30:34 10° NNW 18:35:58 76° WSW 18:41:19 10° SSE
H-2A R/B 3.3 18:33:16 10° ESE 18:36:50 20° ENE 18:40:27 10° NNE
ISS -2.1 18:35:32 10° S 18:37:49 17° SE 18:39:17 14° ESE
Cosmos 2360 Rocket 3.7 18:33:55 10° NW 18:39:06 38° WSW 18:44:17 10° S
Cosmos 2151 Rocket 4.1 18:35:11 10° SSW 18:39:33 66° W 18:43:56 10° N
CZ-2D R/B 3.2 18:39:24 10° SSE 18:43:11 88° WSW 18:47:01 10° NNW
Cosmos 1939 Rocket 2.7 18:40:29 10° SSE 18:44:20 81° ENE 18:48:13 10° N
Lacrosse 5 rocket 2.6 18:47:23 10° SSE 18:49:43 16° ESE 18:49:56 16° ESE
SAR-Lupe-2 3.7 18:49:22 10° NNE 18:52:53 49° E 18:56:21 10° S
Cosmos 1544 2.9 18:49:28 10° S 18:53:03 86° E 18:56:40 10° N
Cosmos 2227 Rocket 3.1 18:48:31 10° SSE 18:53:06 26° ESE 18:57:44 10° NE
Cosmos 2219 3.5 18:48:57 10° S 18:54:25 46° ESE 18:59:53 10° NE
Cosmos 2074 Rocket 4.4 18:49:20 10° NNW 18:55:32 68° W 19:01:41 10° S
Cosmos 1455 Rocket 4.2 18:54:38 15° SE 18:56:54 22° E 19:00:19 10° NE
ARGOS 4.0 18:53:49 15° ESE 18:57:25 31° ENE 19:02:05 10° N
DELTA 2 R/B (1) 4.4 18:53:06 10° SW 18:58:03 33° SSE 19:01:14 19° ESE
Cosmos 2341 Rocket 4.2 18:53:48 10° N 18:59:50 48° ENE 19:05:48 10° SSE
CZ-2C R/B 3.7 18:58:25 10° NNE 19:02:46 51° E 19:07:05 10° S
Cosmos 389 Rocket 3.0 18:59:51 10° N 19:03:04 36° ENE 19:04:29 25° ESE
Cosmos 2297 Rocket 2.8 18:58:44 10° SSE 19:03:44 34° ESE 19:08:46 10° NE
Meteor 1-15 Rocket 4.5 18:58:42 10° SSE 19:04:11 48° E 19:09:49 10° NNE
Cosmos 2084 Rocket 4.4 19:01:19 10° S 19:05:08 28° ESE 19:07:33 18° ENE
GEOS 3 Rocket 3.5 19:01:21 12° SE 19:06:07 90° E 19:11:17 10° NW
Ariane Rocket 3.5 19:03:39 10° S 19:08:38 61° WSW 19:13:41 10° NNW
FREGAT/IRIS 2.4 19:11:15 15° S 19:13:28 78° W 19:16:16 10° NNW
Cosmos 405 Rocket 3.0 19:11:16 14° SSE 19:14:05 39° E 19:17:34 10° NNE
NOSS 3-4 (A) 3.8 19:07:24 10° NW 19:14:29 83° NE 19:20:46 17° SE
NOSS 3-4 (C) 3.8 19:07:30 10° NW 19:14:35 83° NE 19:20:50 17° SE
Cosmos 1437 Rocket 4.2 19:12:03 10° NNE 19:14:27 19° ENE 19:14:27 19° ENE
Cosmos 614 Rocket 4.1 19:10:15 10° NNW 19:15:23 55° ENE 19:18:31 23° SE
EO 1 Delta rocket 4.4 19:09:54 10° SSE 19:16:53 81° ENE 19:22:21 10° N
Cosmos 2218 Rocket 4.5 19:12:12 10° N 19:18:11 40° ENE 19:21:36 23° SE
HJ-1C 4.5 19:15:14 10° S 19:18:28 45° W 19:21:45 10° NNW
Cosmos 2056 Rocket 3.7 19:13:21 10° S 19:18:36 52° ESE 19:23:51 10° NNE
Okean 1 Rocket 3.7 19:14:40 10° SSW 19:18:56 57° W 19:23:15 10° N
Cosmos 2154 Rocket 4.2 19:13:32 10° NNW 19:19:44 74° W 19:25:54 10° S
Cosmos 2366 rocket 4.5 19:15:41 10° N 19:21:39 40° ENE 19:24:45 25° SE
Cosmos 407 Rocket 3.4 19:16:52 10° NNW 19:21:59 66° ENE 19:25:03 24° SE
Resurs 1-3 4.3 19:21:40 31° E 19:22:37 34° ENE 19:26:37 10° N
Cosmos 2333 Rocket 3.2 19:22:24 10° NW 19:27:49 46° WSW 19:33:15 10° S
Meteor 1-4 Rocket 2.4 19:25:07 10° N 19:28:38 58° ENE 19:29:05 52° ESE
Meteor 1-24 Rocket 4.4 19:23:27 10° N 19:28:44 35° ENE 19:30:19 30° ESE
Meteor 2-17 Rocket 4.4 19:22:45 10° N 19:28:48 64° E 19:33:19 18° SSE
Resurs 01 Rocket 2.4 19:29:23 31° ENE 19:29:42 32° ENE 19:33:39 10° N
SL-08 RB Rocket 4.3 19:29:17 35° E 19:30:17 40° ENE 19:34:39 10° N
Cosmos 1624 Rocket 3.9 19:25:21 10° S 19:30:29 68° ESE 19:35:40 10° NNE
CZ-2C R/B 3.7 19:29:59 32° E 19:31:25 38° ENE 19:36:27 10° N
In-Cosmos 22 4.0 19:26:04 10° N 19:31:26 74° ENE 19:35:24 19° SSE
SL-8 Rocket 4.0 19:25:49 10° N 19:31:56 60° ENE 19:35:53 22° SSE
Cosmos 2237 Rocket 2.1 19:29:35 10° NNW 19:35:19 81° ENE 19:38:28 28° SSE
ADEOS Rocket 3.5 19:28:32 10° NNE 19:35:50 60° E 19:43:29 10° S
SL-8 R/B 4.4 19:32:49 10° W 19:37:28 49° N 19:39:50 26° NE
BREEZE-M DEB (TANK) 3.6 19:27:49 10° WNW 19:40:29 88° NNE 19:41:49 45° ESE
Cosmos 1674 3.8 19:37:35 10° N 19:39:57 29° NE 19:39:57 29° NE
Cosmos 1954 Rocket 4.2 19:38:41 10° NNW 19:43:48 51° ENE 19:44:49 44° ESE
Cosmos 1980 3.7 19:39:01 10° NNW 19:44:42 81° WSW 19:47:47 28° SSE
SPOT 3 Rocket 3.6 19:41:13 17° S 19:45:16 75° WSW 19:50:26 10° NNW
Cosmos 1959 Rocket 4.4 19:39:35 10° N 19:45:41 63° E 19:48:26 33° SSE
Spot 2 Rocket 4.4 19:45:58 30° ENE 19:45:58 30° ENE 19:50:12 10° N
USA 186 3.0 19:44:30 23° SSW 19:46:14 44° W 19:49:33 10° NNW
Cosmos 1140 Rocket 3.4 19:41:13 10° NNW 19:46:24 72° ENE 19:47:56 45° SE
Meteor 2-5 Rocket 3.7 19:45:20 10° N 19:51:11 73° E 19:53:38 36° SSE
Cosmos 1892 Rocket 3.8 19:50:09 10° NNW 19:54:35 66° W 19:56:35 31° SSW
ATLAS 2AS CENTAUR R/B 3.9 19:50:48 10° NW 19:57:43 40° WSW 20:03:35 12° S
Meteor 1-22 Rocket 4.3 20:01:14 40° SSE 20:03:23 64° E 20:09:26 10° NNE
Okean 1-7 Rocket 4.4 20:00:16 10° NNW 20:04:35 50° W 20:06:45 26° SSW
SJ-6B 4.2 20:02:27 20° SSW 20:04:50 38° W 20:08:40 10° NNW
SL-16 R/B 2.3 20:00:27 10° NNW 20:06:04 56° ENE 20:06:31 55° E
ERBS 4.3 20:06:26 10° NNW 20:08:14 24° N 20:08:14 24° N
Cosmos 2219 Rocket 4.4 20:06:01 10° NW 20:10:05 21° W 20:14:10 10° SSW
ISS -1.5 20:10:56 10° WSW 20:12:14 22° WSW 20:12:14 22° WSW
H-2A R/B 2.6 20:13:51 32° SSW 20:15:51 53° W 20:20:46 10° NNW
Cosmos 676 Rocket 4.0 20:10:58 10° NNW 20:16:15 79° WSW 20:16:51 68° S
Cosmos 2082 3.6 20:13:55 10° SSW 20:19:39 83° ESE 20:25:24 10° NNE
CZ-2C R/B 4.0 20:15:19 10° NNE 20:17:56 26° NE 20:17:56 26° NE
Lacrosse 5 rocket 3.5 20:24:49 10° WSW 20:25:40 16° WSW 20:25:40 16° WSW
MetOp-B 4.3 20:33:25 62° NNE 20:33:25 62° NNE 20:37:59 10° N
Cosmos 2227 Rocket 3.1 20:31:24 10° SW 20:36:51 48° WNW 20:42:21 10° NNE
ARGOS 4.3 20:35:20 27° SW 20:37:32 38° W 20:42:33 10° NNW
Terra 4.1 20:49:57 15° NNE 20:49:57 15° NNE 20:51:02 10° N
Cosmos 2297 Rocket 3.5 20:42:26 10° SW 20:47:41 38° WNW 20:52:59 10° NNE
Nadezhda 3 Rocket 4.3 20:57:56 58° N 20:57:56 58° N 21:02:51 10° N
Resurs 01 Rocket 3.7 21:06:57 24° WNW 21:06:57 24° WNW 21:09:55 10° NW
Cosmos 1821 Rocket 4.4 21:09:45 10° NNW 21:14:37 56° NNW 21:14:37 56° NNW
USA 234 4.5 21:16:03 29° NE 21:17:21 31° NNE 21:22:59 10° NW
SL-16 R/B 4.3 21:45:27 10° NW 21:48:25 20° W 21:48:25 20° W
CZ-4C R/B 4.3 23:00:01 10° NNW 23:03:40 31° N 23:03:40 31° N
